Location: Benque
(43.2594°N, 0.9178°E)
Time: 17:10:02
(UTC+00:00)

SL-16 R/B - Pass Details

Date: 24 January 2020
Orbit: 841 x 848 km, 71.0° (Epoch: 21 February)

Event Time Altitude Azimuth Distance (km) Brightness Sun altitude
Rises 17:21:36 0° 342° (NNW) 3,418 5.3 -4.9°
Reaches altitude 10° 17:24:24 10° 354° (N) 2,478 4.5 -5.4°
Maximum altitude 17:29:18 29° 53° (NE) 1,517 3.0 -6.2°
Drops below altitude 10° 17:34:09 10° 113° (ESE) 2,462 4.2 -7.1°
Sets 17:36:55 0° 124° (SE) 3,392 5.0 -7.5°
